PDT,Max TemperatureF,Mean TemperatureF,Min TemperatureF,Max Dew PointF,MeanDew PointF,Min DewpointF,Max Humidity, Mean Humidity, Min Humidity, Max Sea Level PressureIn, Mean Sea Level PressureIn, Min Sea Level PressureIn, Max VisibilityMiles, Mean VisibilityMiles, Min VisibilityMiles, Max Wind SpeedMPH, Mean Wind SpeedMPH, Max Gust SpeedMPH,PrecipitationIn, CloudCover, Events, WindDirDegrees
2013-7-1,91,74,56,60,58,55,93,65,37,29.81,29.79,29.77,10,10,10,16,5,22,0.00,0,,209
2013-7-2,83,72,60,61,58,57,84,64,43,29.89,29.85,29.80,10,10,10,24,10,29,0.00,0,,190
2013-7-3,90,74,58,61,58,55,93,66,39,29.91,29.81,29.73,10,10,10,20,8,35,0.00,0,,198
2013-7-4,84,73,61,61,58,50,87,65,43,29.76,29.70,29.63,10,10,10,18,9,33,0.00,0,,193
2013-7-5,72,65,57,54,52,47,86,69,52,29.77,29.71,29.65,10,10,8,23,16,29,0.00,1,,209
2013-7-6,71,64,56,54,53,52,86,71,55,29.81,29.76,29.71,10,9,7,18,14,50,0.00,4,,206
2013-7-7,77,65,52,56,53,51,93,71,49,29.85,29.80,29.75,10,10,7,18,7,22,0.00,3,,224
2013-7-8,77,65,52,57,53,50,93,72,50,29.95,29.90,29.85,10,10,10,21,8,40,0.00,3,,237
2013-7-9,89,70,51,59,53,49,100,66,31,30.04,29.98,29.88,10,7,0,14,7,17,0.00,3,Fog,215
2013-7-10,78,65,52,56,52,49,93,70,47,29.98,29.93,29.86,10,10,10,21,10,24,0.00,2,,230
2013-7-11,72,62,51,55,51,48,93,73,53,29.95,29.90,29.84,10,10,8,23,12,29,0.00,5,,241
2013-7-12,74,64,53,55,52,50,86,70,53,29.95,29.89,29.83,10,10,9,67,10,68,0.00,4,,230
2013-7-13,77,63,49,56,52,47,93,68,43,29.96,29.91,29.86,10,10,8,15,8,17,0.00,2,,203
2013-7-14,74,61,48,55,52,47,96,75,53,30.00,29.93,29.86,10,9,6,17,8,21,0.00,2,,230
2013-7-15,72,62,51,54,51,48,96,75,53,29.93,29.88,29.80,10,10,10,21,12,25,0.00,5,,255
2013-7-16,74,65,55,56,52,50,86,66,46,30.00,29.93,29.85,10,10,10,22,12,31,0.00,4,,260
2013-7-17,78,65,51,57,54,51,93,72,50,30.10,30.03,29.99,10,10,10,18,8,22,0.00,3,,234
2013-7-18,79,66,53,57,54,50,93,69,45,30.06,29.99,29.90,10,9,1,17,8,21,0.00,4,,233
2013-7-19,77,67,56,58,55,53,93,73,53,29.95,29.88,29.79,10,9,7,18,10,24,0.00,4,,208
2013-7-20,75,66,56,55,54,53,93,73,53,29.85,29.79,29.71,10,8,6,20,11,23,0.00,4,,204
2013-7-21,75,65,54,57,53,51,93,71,49,29.86,29.79,29.74,10,10,8,26,10,26,0.00,2,,212
2013-7-22,77,66,55,58,55,52,93,72,50,29.95,29.91,29.87,10,10,10,23,9,30,0.00,2,,228
2013-7-23,77,69,60,59,57,54,84,69,54,29.98,29.94,29.92,10,10,10,16,8,23,0.00,1,,210
2013-7-24,82,69,55,58,55,52,86,64,42,29.97,29.92,29.87,10,10,10,16,8,20,0.00,0,,218
2013-7-25,76,65,54,56,54,51,86,68,50,29.99,29.94,29.90,10,10,10,18,9,21,0.00,0,,222
2013-7-26,77,65,53,57,53,50,93,74,54,30.10,30.02,29.97,10,10,10,20,11,22,0.00,3,,246
2013-7-27,75,65,54,57,53,52,93,73,53,30.03,29.93,29.83,10,10,10,18,11,22,0.00,4,,249
2013-7-28,72,63,54,55,52,51,93,75,57,29.88,29.83,29.77,10,9,7,24,13,29,0.00,5,,245
2013-7-29,71,63,55,55,52,50,86,72,57,30.01,29.92,29.83,10,9,6,25,12,47,0.00,5,,247
2013-7-30,74,64,54,55,52,50,93,73,53,30.11,30.04,29.99,10,8,5,20,9,23,0.00,5,,245
2013-7-31,73,64,54,56,52,50,93,73,53,30.09,30.02,29.94,10,10,10,21,11,28,0.00,4,,242